Regional Weather Roundup
Issued by NWS

Home | Current Version | Previous Version | Graphics & Text | Print | Product List | Glossary On
Versions: 1 2 3 4 5 6 7 8 9 10 11 12 13 14 15 16 17 18 19 20 21 22 23 24 25 26 27
000
ASUS45 KSLC 230610
RWRUT

UTAH REGIONAL WEATHER ROUNDUP
NATIONAL WEATHER SERVICE SALT LAKE CITY UT
1200 AM MDT SUN APR 23 2017

UTZ001>011-023>025-230700-

NORTHERN UTAH

CITY           SKY/WX    TMP DP  RH WIND       PRES   REMARKS
BRIGHAM CITY   MOCLDY    49  38  64 CALM      30.01F
HILL AFB       NOT AVBL
LOGAN          MOCLDY    46  38  73 E3        30.01F
OGDEN          PTCLDY    47  35  63 S8        29.99F
SALT LAKE CITY MOCLDY    51  37  58 SE6       30.00F
TOOELE VALLEY  PTCLDY    41  36  81 S5        30.00F
WENDOVER       CLOUDY    52  36  54 W3        29.97F
HEBER CITY     CLOUDY    37  28  70 CALM      30.05F
WEST JORDAN    PTCLDY    48  42  77 CALM      30.01F

$$

UTZ011>015-024>027-230700-

CENTRAL/NORTHEAST UTAH

CITY           SKY/WX    TMP DP  RH WIND       PRES   REMARKS
PROVO AIRPORT  MOCLDY    48  39  71 CALM      30.02F
MOAB/CANYONLAN MOCLDY    51  14  22 CALM      30.06F
DELTA          MOCLDY    45  32  61 SE6       30.02F
PRICE          CLOUDY    44  20  38 NE9       30.11F
ROOSEVELT      CLOUDY    39  28  65 SW5       30.13S
VERNAL         CLOUDY    45  23  42 NW3       30.10F

$$

UTZ013>016-019>022-027-230700-

SOUTHERN UTAH

CITY           SKY/WX    TMP DP  RH WIND       PRES   REMARKS
BRYCE CANYON   PTCLDY    34  23  64 W6        30.19S WCI  29
CEDAR CITY     MOCLDY    50  30  46 S7        30.03F
MILFORD        MOCLDY    47  31  53 W9        30.02F
ST GEORGE      CLOUDY    63  27  25 SE5       29.94F
HANKSVILLE     MOCLDY    50  14  23 N3        30.09S
BLANDING       CLEAR     41  17  39 NE8       30.21S

$$

REGIONAL REPORTS     COLORADO/ARIZONA

CITY           SKY/WX    TMP DP  RH WIND       PRES   REMARKS
CRAIG, CO      CLOUDY    33  27  78 CALM      30.13S
GRAND JUNCTION CLOUDY    48  20  32 E6        30.08F
RIFLE, CO      CLOUDY    42  26  53 CALM      30.14R
MONTROSE, CO   CLOUDY    44  19  36 SE12      30.17S
CORTEZ, CO     CLOUDY    37  22  54 E5        30.17F WCI  33
COLORADO CITY    N/A     59  27  29 NE10      30.06F
PAGE, AZ       PTCLDY    56  24  29 SW3       30.05F
GRAND CANYON   CLEAR     43  22  43 E3        30.14F
KINGMAN, AZ    CLEAR     54  27  35 SE7       29.96F
FLAGSTAFF, AZ  CLEAR     41  21  44 CALM      30.18S

$$

REGIONAL REPORTS    NEVADA/IDAHO/WYOMING

CITY           SKY/WX    TMP DP  RH WIND       PRES   REMARKS
LAS VEGAS, NV  MOCLDY    71  28  20 W3        29.86F
ELY, NY        CLOUDY    50  28  42 S13       30.00F
ELKO, NV       MOCLDY    50  39  66 SW5       29.91F
POCATELLO, ID  MOCLDY    52  27  38 NE6       29.97F
BURLEY, ID     CLOUDY    49  34  56 SE3       29.90F
FORT BRIDGER,    N/A     46  23  39 W3        30.12S
EVANSTON, WY   CLOUDY    40  27  59 S9        30.08F WCI  34
ROCK SPRINGS,  CLOUDY    41  23  48 SW5       30.09S
KEMMERER, WY     N/A     41  28  60 CALM      30.09F

$$




USA.gov is the U.S. government's official web portal to all federal, state and local government web resources and services.